Location: Caltech
(34.1382°N, 118.1253°W)
Time: 01:24:49
(UTC-07:00)

OPAL - Visible Passes

Search period start: 26 August 2016 00:00
Search period end: 05 September 2016 00:00
Orbit: 743 x 796 km, 100.2° (Epoch: 25 August)

Date Brightness Start Highest point End Pass type
(mag) Time Alt. Az. Time Alt. Az. Time Alt. Az.
26 Aug 9.0 03:32:31 10° N 03:35:05 28° NNW 03:35:05 28° NNW visible
27 Aug 9.4 02:56:56 10° NNE 02:59:05 26° NNE 02:59:05 26° NNE visible
27 Aug 9.7 04:38:29 10° NW 04:39:22 11° NW 04:39:22 11° NW visible
28 Aug 10.1 02:22:02 10° NE 02:23:05 15° NE 02:23:05 15° NE visible
28 Aug 9.2 04:01:02 10° NNW 04:03:22 21° NW 04:03:22 21° NW visible
29 Aug 9.1 03:24:59 10° N 03:27:22 28° N 03:27:22 28° N visible
30 Aug 9.7 02:49:34 10° NNE 02:51:22 22° NNE 02:51:22 22° NNE visible
30 Aug 9.5 04:30:10 10° NNW 04:31:40 14° NW 04:31:40 14° NW visible
31 Aug 10.4 02:14:54 10° NE 02:15:23 12° NE 02:15:23 12° NE visible
31 Aug 9.2 03:53:21 10° N 03:55:40 23° NNW 03:55:40 23° NNW visible
01 Sep 9.3 03:17:29 10° NNE 03:19:40 26° N 03:19:40 26° N visible
02 Sep 9.9 02:42:15 10° NNE 02:43:39 18° NE 02:43:39 18° NE visible
02 Sep 9.4 04:22:11 10° NNW 04:23:57 16° NW 04:23:57 16° NW visible
03 Sep 9.2 03:45:44 10° N 03:47:57 24° NNW 03:47:57 24° NNW visible
04 Sep 9.5 03:10:03 10° NNE 03:11:57 23° NNE 03:11:57 23° NNE visible
